This is the latest recevied weather packets stored in our database for station/object EA1GHG-11. If no packets are shown the sender has not sent any weather packets the latest 10 day(s).
| Time | Temp. | Humidity | Pressure | Rain* | Wind** | Luminosity | Snow |
|---|---|---|---|---|---|---|---|
| 1777559204 | 21.11° C | 100% | 1020.7 hPa | - | - | - | - |
| 1777557703 | 20° C | 100% | 1020.9 hPa | - | - | - | - |
| 1777556203 | 19.44° C | 100% | 1020.8 hPa | - | - | - | - |
| 1777554703 | 20.56° C | 100% | 1020.7 hPa | - | - | - | - |
| 1777553203 | 18.33° C | 100% | 1020.6 hPa | - | - | - | - |
| 1777551703 | 16.11° C | 100% | 1020.6 hPa | - | - | - | - |
| 1777551105 | 16.67° C | 100% | 1020.8 hPa | - | - | - | - |
| 1777549604 | 16.67° C | 100% | 1020.6 hPa | - | - | - | - |
| 1777548104 | 18.89° C | 100% | 1020.5 hPa | - | - | - | - |
| 1777546604 | 17.78° C | 100% | 1020.4 hPa | - | - | - | - |
| 1777545104 | 17.78° C | 100% | 1020.4 hPa | - | - | - | - |
| 1777543604 | 16.67° C | 100% | 1020.2 hPa | - | - | - | - |
| 1777542104 | 15.56° C | 100% | 1020 hPa | - | - | - | - |
| 1777540604 | 15.56° C | 100% | 1019.8 hPa | - | - | - | - |
| 1777539104 | 15° C | 100% | 1019.6 hPa | - | - | - | - |
| 1777537604 | 14.44° C | 100% | 1019.3 hPa | - | - | - | - |
| 1777536103 | 15° C | 100% | 1019 hPa | - | - | - | - |
| 1777534603 | 14.44° C | 100% | 1018.7 hPa | - | - | - | - |
| 1777533103 | 14.44° C | 100% | 1018.6 hPa | - | - | - | - |
| 1777531603 | 13.89° C | 100% | 1018.3 hPa | - | - | - | - |
| 1777530103 | 13.89° C | 100% | 1018.1 hPa | - | - | - | - |
| 1777529505 | 13.89° C | 100% | 1018.1 hPa | - | - | - | - |
| 1777528005 | 13.89° C | 100% | 1017.8 hPa | - | - | - | - |
| 1777526505 | 13.89° C | 100% | 1017.4 hPa | - | - | - | - |
| 1777525004 | 13.89° C | 100% | 1017.5 hPa | - | - | - | - |
* Rain since midnight (hover to see other rain measurements)
** Current wind speed in m/s (hover to see current wind gust speed)